Regional Weather Roundup
Issued by NWS

Home | Current Version | Previous Version | Graphics & Text | Print | Product List | Glossary On
Versions: 1 2 3 4 5 6 7 8 9 10 11 12 13 14 15 16 17 18 19 20 21 22 23 24 25 26 27 28 29 30 31 32 33 34 35 36 37 38 39 40 41 42 43 44 45 46 47 48 49 50
000
ASUS43 KMKX 201500
RWRWI

WISCONSIN REGIONAL WEATHER ROUNDUP
NATIONAL WEATHER SERVICE MILWAUKEE/SULLIVAN WI
1000 AM CDT SAT SEP 20 2014

NOTE: "FAIR" INDICATES FEW OR NO CLOUDS BELOW 12,000 FEET WITH NO
SIGNIFICANT WEATHER AND/OR OBSTRUCTIONS TO VISIBILITY.

WIZ001-002-006>008-014>016-023>028-201600-
NORTHWEST WISCONSIN

CITY           SKY/WX    TMP DP  RH WIND       PRES   REMARKS
SUPERIOR ARPT  CLOUDY    63  56  80 NW14      29.72R
ASHLAND        CLOUDY    66  58  75 W8G18     29.69R
HAYWARD        MOSUNNY   65  56  72 NW10G17   29.73R
SIREN          CLOUDY    64  58  83 NW10      29.76R
RICE LAKE      CLOUDY    64  58  78 W8        29.76R
LADYSMITH      CLOUDY    66  59  78 W9        29.74R
EAU CLAIRE     CLOUDY    69  61  75 NW12      29.75R
MENOMONIE      CLOUDY    67  60  76 W16       29.76R
NEW RICHMOND   PTSUNNY   64  59  85 W8        29.78R
OSCEOLA        CLOUDY    64  62  91 W7        29.80R
$$

WIZ003>005-009-010-017-018-201600-
NORTH CENTRAL WISCONSIN

CITY           SKY/WX    TMP DP  RH WIND       PRES   REMARKS
WOODRUFF       CLOUDY    68  61  79 NW7G16    29.69R
RHINELANDER    PTSUNNY   70  61  73 W16G26    29.69S
EAGLE RIVER    CLOUDY    69  60  73 W14G21    29.67R
LAND O LAKES   CLOUDY    68  61  76 W10G22    29.66S
PHILLIPS       CLOUDY    65  60  82 W8G17     29.71R
TOMAHAWK       PTSUNNY   67  61  79 W10       29.70S
MEDFORD        CLOUDY    65  62  91 W9        29.73R
MERRILL        CLOUDY    67  63  86 W14G20    29.70S
$$

WIZ029-030-035-036-043>047-201600-
CENTRAL WISCONSIN

CITY           SKY/WX    TMP DP  RH WIND       PRES   REMARKS
WAUSAU         CLOUDY    68  62  81 W18G24    29.70R
MOSINEE        CLOUDY    66  66 100 W12G23    29.73R
MARSHFIELD     CLOUDY    68  63  84 W13       29.73S
STEVENS POINT  CLOUDY    65  61  88 W9        29.74R
WAUPACA        MOSUNNY   69  65  85 SW15      29.73S
WAUTOMA        NOT AVBL
WISC RAPIDS    PTSUNNY   68  63  84 SW8       29.76R
CAMP DOUGLAS   NOT AVBL
$$

WIZ011>013-019>022-031-037>040-048>050-201600-
NORTHEAST WISCONSIN

CITY           SKY/WX    TMP DP  RH WIND       PRES   REMARKS
ANTIGO         CLOUDY    65  62  90 W13G20    29.71R
STURGEON BAY   PTSUNNY   70  61  73 SW18G25   29.68S
GREEN BAY      MOSUNNY   69  63  81 SW10G21   29.71S
MANITOWOC      NOT AVBL
APPLETON       PTSUNNY   66  63  88 SW18G24   29.73F
CLINTONVILLE   CLOUDY    68  63  83 SW9G17    29.70S
OSHKOSH        PTSUNNY   70  63  78 SW15G23   29.72F
$$

WIZ032>034-041-042-053>061-201600-
SOUTHWEST WISCONSIN

CITY           SKY/WX    TMP DP  RH WIND       PRES   REMARKS
LA CROSSE      CLOUDY    69  63  81 SW3       29.75F
SPARTA         PTSUNNY   67  61  80 SW6       29.78R
VIROQUA        PTSUNNY   67  66  94 W10G17    29.79F
BOSCOBEL       PTSUNNY   70  63  78 SW7       29.80F
PRAIRIE DU CHI PTSUNNY   70  61  74 W6        29.81S
PLATTEVILLE    FAIR      69  65  86 SW8       29.84S
$$

WIZ056-057-062-063-064-067-068-201600-
SOUTH CENTRAL WISCONSIN

CITY           SKY/WX    TMP DP  RH WIND       PRES   REMARKS
BARABOO/DELLS  MOSUNNY   69  61  77 SW16      29.77F
LONE ROCK      NOT AVBL
WATERTOWN      CLOUDY    65  63  93 S9G16     29.81S
MADISON        CLOUDY    69  62  78 SW8       29.81R
MIDDLETON      FAIR      69  64  86 SW12      29.81R
MONROE         PTSUNNY   68  63  83 SW16G22   29.83S
JANESVILLE     SUNNY     72  63  73 SW9       29.83S
$$

WIZ051-052-058>065-066-070>072-201600-
SOUTHEAST WISCONSIN

CITY           SKY/WX    TMP DP  RH WIND       PRES   REMARKS
MILWAUKEE      CLOUDY    67  59  75 SW14      29.82S
WAUKESHA       PTSUNNY   63  59  88 SW10      29.83F
MILWAUKEE/TIMM SUNNY     66  59  77 SW12G18   29.82F
RACINE         CLOUDY    69  60  73 SW16G22   29.84S
BURLINGTON     CLOUDY    66  59  78 SW13      29.83S
KENOSHA        PTSUNNY   70  61  73 SW16G23   29.83R
FOND DU LAC    PTSUNNY   68  62  81 SW17      29.75F
SHEBOYGAN      CLOUDY    67  61  81 SW13      29.75S
WEST BEND      LGT RAIN  64  59  82 S10G16    29.79F
JUNEAU         PTSUNNY   64  62  92 S12       29.81S FOG
$$

LSZ147-162-201600-
LAKE SUPERIOR

STATION/POSITION TIME  TEMP    WIND        PRES    WAVE
                       AIR SEA DIR/SP/G            HT/PER
                 (UTC) (F)     (DEG/KT/KT) (MB)    (FT/S)
W MID LAKE BUOY  1350   53 47  240/ 16/ 17 1001.2R   1/ 2
DEVILS ISLAND    1400   57     240/ 16/ 17 1003.6R
PORT WING        1400   61     270/ 15/ 19 1005.1R
SAXON HARBOR     1400   68     250/  3/ 11 1004.4
$$

LMZ867-665-643>646-201600-
LAKE MICHIGAN

STATION/POSITION TIME  TEMP    WIND        PRES    WAVE
                       AIR SEA DIR/SP/G            HT/PER
                 (UTC) (F)     (DEG/KT/KT) (MB)    (FT/S)
N MID LAKE BUOY  1350   59 58  200/ 19/ 23 1004.2F   6/ 7
NORTHPORT PIER   1400   63     200/  4/  8 1004.1R
KEWAUNEE LAKESHO 1400   65     230/ 11/ 18 1005.1R
SHEBOYGAN LAKESH 1400   66 54  220/ 15/ 17 1007.6F
PORT WASHINGTON  1420   69     240/ 10/ 19 1009.1S
ATWATER BUOY     1400   63     230/ 14/ 21 1010.5R
MILWAUKEE LAKESH 1400   66     240/ 14/ 17   N/A
S MID LAKE BUOY  1350   64 64  200/ 23/ 27 1009.1F   4/ 6
KENOSHA   LAKESH 1400   66     230/ 15/ 25 1009.8R
$$

TC  - TEMPERATURE IN CELSIUS
VSB - VISIBILITY IN STATUTE MILES
WCI - WIND CHILL INDEX
HX  - HEAT INDEX




USA.gov is the U.S. government's official web portal to all federal, state and local government web resources and services.